Location: Allen Fire Department Station 4
(33.1073°N, 96.6988°W)
Time: 08:28:36
(UTC+00:00)

Cosmos 1763 Rocket - Pass Details

Date: 30 June 2022
Orbit: 732 x 780 km, 74.0° (Epoch: 09 August)

Event Time Altitude Azimuth Distance (km) Brightness Sun altitude
Exits shadow 07:21:23 29° 68° (ENE) 1,361 5.0 -32.4°
Drops below altitude 10° 07:24:37 10° 36° (NE) 2,303 6.7 -32.3°
Sets 07:27:11 0° 28° (NNE) 3,240 7.8 -32.1°
